Flag for Madagascar Weather past 2 weeks in Antananarivo, Madagascar

Now
52 °F

Passing clouds.


Feels Like: 49 °F
Forecast: 48 / 64 °F
Wind: 7 mph from Southeast

Location: Antananarivo / Ivato

Current Time: Aug 3, 2015 at 10:55:40 PM

Latest Report: Aug 3, 2015 at 10:00 PM


Visibility: N/A

Pressure: 30.36 "Hg (26.01 "Hg at 1287m altitude)

Humidity: 100%

Dew point: 52 °F

Location of AntananarivoLocation

Historic Weather in Antananarivo — Graph

°F

Antananarivo temperature yesterday

Maximum temperature yesterday: 66 °F (at 11:00 AM)
Minimum temperature yesterday: 54 °F (at 12:00 AM)
Average temperature yesterday: 58 °F

Past Weeks' High & Low Weather Summary

 TemperatureHumidityPressure
High81 °F (Jul 31, 2:00 PM)100% (Jul 19, 10:00 PM)30.39 "Hg (Jul 19, 10:00 PM)
Low43 °F (Jul 22, 4:30 AM)39% (Jul 26, 1:30 PM)30.12 "Hg (Jul 31, 2:30 PM)
Average59 °F86%30.27 "Hg
* Reported Jul 19 10:00 PM — Aug 3 10:00 PM, Antananarivo, Weather by CustomWeather, © 2015

Note: Actual official high and low records may vary slightly from our data, if they occured in-between our weather recording intervals... More about our weather records

Advertising

Antananarivo weather history for previous 24 hours

 ConditionsComfort  
Time TempWeatherWind HumidityBarometerVisibility
10:00 PM
Mon, Aug 3
52 °FPassing clouds.7 mph100%30.36 "HgN/A
9:30 PM52 °FPassing clouds.6 mph100%30.36 "HgN/A
9:00 PM52 °FPassing clouds.7 mph100%30.36 "HgN/A
8:30 PM52 °FPassing clouds.5 mph100%30.36 "HgN/A
8:00 PM54 °FPassing clouds.8 mph100%30.33 "HgN/A
7:30 PM54 °FPassing clouds.7 mph100%30.33 "HgN/A
7:00 PM54 °FPassing clouds.9 mph100%30.33 "HgN/A
6:30 PM54 °FPassing clouds.10 mph100%30.30 "HgN/A
6:00 PM55 °FPassing clouds.9 mph94%30.30 "HgN/A
5:30 PM55 °FPartly sunny.12 mph94%30.30 "HgN/A
5:00 PM57 °FScattered clouds.10 mph94%30.30 "HgN/A
4:30 PM57 °FPartly sunny.9 mph94%30.27 "HgN/A
4:00 PM57 °FPartly sunny.12 mph94%30.30 "HgN/A
3:30 PM57 °FPartly sunny.9 mph94%30.30 "HgN/A
3:00 PM61 °FBroken clouds.9 mph100%30.30 "HgN/A
2:30 PM57 °FBroken clouds.10 mph100%30.30 "HgN/A
2:00 PM55 °FBroken clouds.9 mph100%30.30 "HgN/A
1:30 PM54 °FBroken clouds.8 mph100%30.30 "HgN/A
1:00 PM54 °FBroken clouds.7 mph100%30.33 "HgN/A
12:30 PM54 °FLight rain. Broken clouds.7 mph100%30.33 "Hg3 mi
12:00 PM54 °FLight rain. Broken clouds.3 mph100%30.36 "HgN/A
11:30 AM54 °FLight rain. Broken clouds.7 mph100%30.36 "Hg5 mi
11:00 AM54 °FLight rain. Broken clouds.8 mph100%30.36 "HgN/A
10:30 AM54 °FLight rain. Broken clouds.12 mph100%30.36 "HgN/A
10:00 AM54 °FLight rain. Broken clouds.8 mph100%30.39 "HgN/A
9:30 AM54 °FLight rain. Broken clouds.7 mph100%30.36 "HgN/A
9:00 AM52 °FDrizzle. Broken clouds.6 mph100%30.36 "HgN/A
8:30 AM52 °FDrizzle. Broken clouds.8 mph100%30.36 "HgN/A
8:00 AM52 °FDrizzle. Broken clouds.6 mph100%30.33 "Hg5 mi
7:30 AM52 °FDrizzle. Broken clouds.6 mph100%30.30 "HgN/A
7:00 AM52 °FDrizzle. Broken clouds.7 mph100%30.30 "Hg5 mi
6:30 AM52 °FDrizzle. Broken clouds.7 mph100%30.30 "HgN/A
6:00 AM52 °FPassing clouds.7 mph100%30.30 "Hg5 mi
5:30 AM50 °FPassing clouds.2 mph100%30.30 "HgN/A
5:00 AM52 °FPassing clouds.No wind100%30.30 "HgN/A
4:30 AM52 °FPassing clouds.7 mph100%30.27 "HgN/A
4:00 AM52 °FPassing clouds.9 mph100%30.27 "HgN/A
3:30 AM52 °FPassing clouds.6 mph100%30.30 "HgN/A
3:00 AM52 °FPassing clouds.No wind100%30.30 "HgN/A
2:30 AM52 °FPassing clouds.5 mph100%30.30 "Hg4 mi
2:00 AM52 °FPassing clouds.8 mph100%30.30 "HgN/A
1:00 AM52 °FPartly cloudy.10 mph100%30.30 "HgN/A
12:30 AM52 °FPartly cloudy.10 mph100%30.30 "HgN/A
12:00 AM52 °FPassing clouds.8 mph100%30.33 "Hg6 mi
11:30 PM
Sun, Aug 2
54 °FPartly cloudy.7 mph100%30.33 "Hg4 mi
11:00 PM54 °FPartly cloudy.9 mph100%30.33 "Hg4 mi
10:30 PM54 °FPartly cloudy.8 mph100%30.33 "HgN/A
10:00 PM54 °FPartly cloudy.8 mph100%30.33 "Hg5 mi
Weather by CustomWeather, © 2015

See weather overviewHow to use our weather pages